Погода Первомайское

Погода Первомайское : погода сейчас, прогноз погоды и архив. Всё, что Вы хотите узнать о погоде Первомайское!

Хотите узнать прогноз погоды Первомайское? Тогда Вам сюда: Погода Первомайское

Поиск расширенной информации на нашем сайте:

Другие новости

Новости СМИ2

Главная страница сайта

Новости сайта

03.07.2017

Напоминаем, что на нашем специализированном сайте Метеоцентр.Азия вы можете получить высокодетализированные автоматические прогнозы погоды по пунктам России, СНГ и мира в авиационном формате (включающие направление и скорость ветра, видимость, явления погоды, количество и форму облачности, нижнюю и верхнюю границу облачности).


Погода Первомайское - сегодня

Время (UTC), дата Ветер
(°,м/с) 
Видим.   Явления Облачность Т
(°С)
Тd
(°С)
f(%) Тe
(°С)
Pmin
(гПа)
dP
(гПа)
Po
(мм)
O2
(г/м3)
Тmin Tmax R s Состояние
почвы
12 18.06.18 090 (В) 3{10}  10 км    ясно 
+30.4 +8.2 25 +30  1000.7  -1.1  741  267    +31.2       
15 18.06.18 080 (В) 10 км    4/0 верхняя 
[Ci fib]
+26.1 +11.8 41 +30  999.8  -1  740  270           
18 18.06.18 080 (В) 10 км    3/0 верхняя 
[Cc]
+23 +10.3 45 +25  998.3  -1.7  739  273           
21 18.06.18 080 (В) 10 км    4/0 средняя 
[Ac cast]
+20.6 +11.1 54 +24  997  -1.3  738  274           
00 19.06.18 тихо ()   10 км    6/0 средняя 
[Ac trans]
+20 +14 68 +27  997.5  0.5  738  274  +19.1        сухая 
03 19.06.18 210 (ЮЗ) 10 км    3/0 средняя, верхняя 
[Ac trans|Ci fib]
+22.3 +15 63 +31  998.7  1.2  739  272           
06 19.06.18 210 (ЮЗ) 10 км    ясно 
+26.6 +13.8 45 +34  998.4  -0.1  739  269           
09 19.06.18 110 (В) 10 км    1/1 600 м 
[Cu med, cong]
+28.5 +13.2 39 +35  997.6  -0.7  739  267           
12 19.06.18 100 (В) 10 км    9/0 верхняя 
[Cs]
+27.5 +11.6 37 +31  996.3  -1.4  737  268    +28.9       
15 19.06.18 тихо ()   10 км    10/5 600 м кучево-дожд., средняя 
[Cb cap|Ac As]
+23.8 +14.5 56 +32  995.2  -1.2  737  270           
18 19.06.18 170 (Ю) 10 км  {гроза, ливн. осадки}  3/0 средняя 
[Ac trans]
+21.5 +9.5 46 +22  995.4  0.2  737  274           
21 19.06.18 200 (Ю) 3{10}  10 км    9/6 600 м кучево-дожд., средняя 
[Cb cap|Ac trans]
+18 +11.1 64 +22  998.2  2.5  739  277           
00 20.06.18 200 (Ю) 4{11}  10 км  {ливн. осадки}  9/9 600 м кучево-дожд. 
[Cb cap]
+16.9 +11.2 69 +20  1000.9  2.7  741  279  +16.1    0.0    сухая 
03 20.06.18 200 (Ю) 3{10}  10 км    3/3 600 м 
[Cu Sc]
+19.8 +10.5 55 +23  1002.7  1.8  742  277           
06 20.06.18 200 (Ю) 3{11}  10 км    5/5 600 м 
[Cu Sc]
+23.3 +8.4 39 +23  1002.8  0.3  742  274           
09 20.06.18 180 (Ю) 10 км    9/8 600 м кучево-дожд., средняя 
[Cb cap|Ac trans]
+22.9 +6.6 35 +23  1001.9  -0.9  742  275           
12 20.06.18 070 (В) 10 км  в посл. час ливневой дождь  6/4 600 м кучево-дожд., средняя, верхняя 
[Cb cap|Ac trans|Ci fib]
+20 +12.6 62 +25  1002  742  276    +24.5     
15 20.06.18 170 (Ю) 10 км    8/3 600 м кучево-дожд., верхняя 
[Cb cap|Ci fib]
+19.2 +12.6 66 +25  1002  742  277           
18 20.06.18 180 (Ю) 10 км  слаб. ливневой дождь  8/8 600 м кучево-дожд. 
[Cb cap]
+16.1 +11.3 73 +20  1002.1  -0.1  741  280           
21 20.06.18 170 (Ю) 10 км  {ливн. осадки}  10/0 средняя, верхняя 
[Ac trans|Cs]
+14.6 +12.1 85 +19  1002.4  0.2  742  281           
00 21.06.18 150 (ЮВ) 10 км  слаб. ливневой дождь  9/8 600 м кучево-дожд., средняя 
[Cb cap|Ac trans]
+13.6 +12 90 +18  1003.1  0.6  742  282  +13.5      влажная 
03 21.06.18 180 (Ю) 10 км  {ливн. осадки}  6/3 600 м верхняя 
[Cu hum|Ci fib]
+18.4 +12.7 69 +24  1003.3  0.5  742  278           
09 21.06.18 220 (ЮЗ) 10 км    9/8 600 м кучево-дожд., верхняя 
[Cb cap|Ci fib]
+23.2 +9.1 41 +23  1002.9  0.1  742  274           
12 21.06.18 210 (ЮЗ) 10 км    6/4 600 м верхняя 
[Cu hum|Ci fib]
+23 +8.8 40 +23  1003.4  0.5  743  274    +23.8  0.0     
15 21.06.18 180 (Ю) 10 км    3/1 600 м кучево-дожд., верхняя 
[Cb cap|Ci fib]
+19.4 +10.7 57 +23  1004.8  1.2  744  278           
Время (UTC), дата Ветер
(°,м/с) 
Видим.   Явления Облачность Т
(°С)
Тd
(°С)
f(%) Тe
(°С)
Pmin
(гПа)
dP
(гПа)
Po
(мм)
O2
(г/м3)
Тmin Tmax R s Состояние
почвы

Для получения пояснительной информации подведите курсор к названию столбца.

ПОГОДА Первомайское - архив

Всё, что Вы хотите узнать о погоде Первомайское - удобно и подробно!

Выберите нужную дату (начиная с 1 января 2015* года) и нажмите кнопку "Найти".
Будут отображены архивные сводки погоды по пункту Первомайское, начиная с указанной даты.


Отображать данные в формате CSV (для использования в таблицах Excel)


Внимание! Наш архив погоды предназначен исключительно для личного некоммерческого использования в познавательных целях. Если Вам необходимы официальные справки о состоянии погоды (для производственных, юридических, коммерческих и т.п. целей), обращайтесь в органы Росгидромета.

*Примечание: данная дата относится к архиву по метеостанциям СССР (Россия, СНГ, Балтия).
Архив по метеостанциям Зарубежной Европы и Азии (кроме Китая) хранится 10 дней, по другим регионам земного шара (Китай, Африка, Америка, Австралия, Океания) - 1 день.

Первомайское - район местоположения метеостанции


Название, широта, долгота, высота метеостанции:
Первомайское 57.1°ш. 86.2°д. 114 м над ур. моря [Российская Федерация]

Дополнительная информация

В oтличие oт бoльшинства пoгoдных сайтoв мы публикуем пoдрoбную метеoинфoрмацию в детальнoм прoфессиoнальнoм фoрмате.

Характеристики температуры и влажнoсти вoздуха измеряются на высoте 2 м в тени вдали oт зданий и деревьев.
Скoрoсть ветра измеряется на высoте 10 м (на урoвне рoста челoвека скoрoсть ветра ниже в 1.5-2 раза). Если метеoстанция нахoдится в гoрoде или в лесу, тo скoрoсть ветра занижена на 2-4 м/с пo сравнению с oткрытым местoм. Скoрoсть ветра над акватoриями крупных рек и oзёр, а также на вершинах хoлмoв на 2-5 м/с выше, чем в oбычных услoвиях.
Атмoсфернoе давление в разных тoчках местнoсти мoжет значительнo oтличаться oт давления на метеoстанции, в зависимoсти oт услoвий рельефа (при пoдъёме на 10 м давление пoнижается примернo на 1 мм рт.ст.).